Regional Weather Roundup
Issued by NWS New Orleans/Baton Rouge, LA

Home | Current Version | Previous Version | Text Only | Print | Product List | Glossary Off
Versions: 1 2 3 4 5 6 7 8 9 10 11 12 13 14 15 16 17 18 19 20 21 22 23 24 25 26 27 28 29 30 31 32 33 34 35 36 37 38 39 40 41 42 43 44 45 46 47 48 49 50

209
ASUS44 KLIX 272207
RWRLIX
NEW ORLEANS REGIONAL WEATHER ROUNDUP
NATIONAL WEATHER SERVICE NEW ORLEANS LA
500 PM CDT FRI MAR 27 2015

NOTE: "FAIR" INDICATES FEW OR NO CLOUDS BELOW 12,000 FEET WITH NO
      SIGNIFICANT WEATHER AND/OR OBSTRUCTIONS TO VISIBILITY.
      SKY/WX - SKY CONDITION AND SIGNIFICANT WEATHER.
      TMP - AIR TEMPERATURE.     DP    - DEWPOINT TEMPERATURE.
      RH  - RELATIVE HUMIDITY.   PRES  - PRESSURE.
      HI  - HEAT INDEX.          WCI   - WIND CHILL INDEX.

*  THESE STATIONS ARE NOT NWS OR FAA STATIONS AND ARE NOT UNDER
   NWS QUALITY CONTROL.

LAZ038-040-048-061>063-065>067-069-272300-
SOUTHEAST LOUISIANA

CITY           SKY/WX    TMP DP  RH WIND       PRES   REMARKS
N.O. AUDUBON     N/A     70 N/A N/A MISG        N/A
N.O. INTL ARPT MOSUNNY   69  37  30 NW14      30.01S
N.O. LAKEFRONT SUNNY     70  43  37 W15       30.01S
SLIDELL        SUNNY     70  35  27 NW13G22   29.99S
BATON ROUGE    SUNNY     68  39  34 W12G20    30.02F
BOOTHVILLE     SUNNY     66  38  35 NW14      30.02F
BELLE CHASSE   MOSUNNY   69  33  26 NW9G18    30.00S
BOGALUSA*        N/A     70  32  24 NW16G25   30.01S
GALLIANO*      CLEAR     72  34  25 NW14G22   30.02S
NEW ROADS*       N/A     69  40  34 NW12      30.02F
GONZALES*        N/A     69  40  34 NW8G16    30.03S
HAMMOND*       SUNNY     72  32  23 NW18G28   30.02R
HOUMA*         NOT AVBL
PORT FOURCHON* CLEAR     68  39  34 W12G18    30.06F

$$

MSZ070-080>082-272300-
SOUTHERN MISSISSIPPI

CITY           SKY/WX    TMP DP  RH WIND       PRES   REMARKS
MCCOMB         SUNNY     66  37  34 NW14      30.01S
GULFPORT       SUNNY     69  34  27 NW13      29.97S
BILOXI         SUNNY     69  36  29 NW15G25   29.97S
PASCAGOULA     SUNNY     69  32  25 NW8G18    29.96S
STENNIS ARPT*  SUNNY     70  25  18 N14       29.99S

$$

COASTAL OBSERVATIONS
LAKE AND NEARSHORE STATIONS

STATION/POSITION TIME  TEMP    WIND        PRES    WAVE
                       AIR SEA DIR/SP/G            HT/PER
                 (UTC) (F)     (DEG/KT/KT) (MB)    (FT/S)
PASCAGOULA       2100   68     310/ 12/ 16 1014.2
WAVELAND YACHT   2100   66 67  330/ 13/ 17 1015.1
GRAND ISLE       2100   67 69  360/  5/  8 1016.3
SOUTHWEST PASS   2100   67 53  320/ 13/ 16 1017.2
NEW CANAL        2100   67     270/  5/  8 1016.6
SHELL BEACH      2100   64 69  290/ 17/ 19 1016.0

OFFSHORE STATIONS

STATION/POSITION TIME  TEMP    WIND        PRES    WAVE
                       AIR SEA DIR/SP/G            HT/PER
                 (UTC) (F)     (DEG/KT/KT) (MB)    (FT/S)
64 S DAUPHIN ISL 2150   62 72  310/ 17/ 25 1015.8    4/ 6

$$




USA.gov is the U.S. government's official web portal to all federal, state and local government web resources and services.